Regional Weather Roundup
Issued by NWS

Home | Current Version | Previous Version | Graphics & Text | Print | Product List | Glossary On
Versions: 1 2 3 4 5 6 7 8 9 10 11 12 13 14 15 16 17 18 19 20 21 22 23 24 25 26 27 28 29 30 31 32 33 34 35 36 37 38 39 40 41 42 43 44 45 46 47 48 49 50
317
ASUS45 KCYS 191210
RWRWY

WYOMING REGIONAL WEATHER ROUNDUP
NATIONAL WEATHER SERVICE CHEYENNE WY
600 AM MDT THU APR 19 2018

NOTE:  "FAIR" INDICATES FEW OR NO CLOUDS BELOW 12,000 FEET
WITH NO SIGNIFICANT WEATHER AND/OR OBSTRUCTIONS TO VISIBILITY.

WYZ001-191300-
YELLOWSTONE NATIONAL PARK

CITY           SKY/WX    TMP DP  RH WIND       PRES   REMARKS
LK YELLOWSTONE   N/A     20  14  77 NW3       30.10F
6HR MIN TEMP:  16; 6HR MAX TEMP:  21;

W YELLOWSTONE  NOT AVBL

$$
WYZ002>013-054>058-071-098>099-191300-
NORTHERN WYOMING

CITY           SKY/WX    TMP DP  RH WIND       PRES   REMARKS
JACKSON        FAIR      29  21  72 NW3       30.07S
CODY           FAIR      34  25  69 CALM      30.13F
GREYBULL       FAIR      33  29  85 NE5       30.13S WCI  29
6HR MIN TEMP:  33; 6HR MAX TEMP:  44;

WORLAND        FAIR      30  28  92 SW3       30.11F
6HR MIN TEMP:  30; 6HR MAX TEMP:  40;

SHERIDAN       FAIR      39  25  57 S9        30.16F WCI  33
6HR MIN TEMP:  28; 6HR MAX TEMP:  39;

BUFFALO        FAIR      35  22  58 S7        30.21S WCI  29
6HR MIN TEMP:  33; 6HR MAX TEMP:  40;

GILLETTE       FAIR      35  25  66 SE15      30.24R WCI  25
6HR MIN TEMP:  31; 6HR MAX TEMP:  37;

HULETT         FAIR      30  27  86 S6        30.27F WCI  24
NEWCASTLE      FAIR      36  28  75 SE9G16    30.29S WCI  29

$$
WYZ014>020-022>026-101>103-191300-
CENTRAL WYOMING

CITY           SKY/WX    TMP DP  RH WIND       PRES   REMARKS
BIG PINEY      FAIR      27  10  49 N6        30.07F WCI  20
6HR MIN TEMP:  26; 6HR MAX TEMP:  35;

PINEDALE       FAIR      28  21  74 W10       30.08F WCI  19
DUBOIS         FAIR      27  18  69 CALM      30.11F
LANDER         FAIR      34  21  59 W5        30.12R WCI  30
6HR MIN TEMP:  28; 6HR MAX TEMP:  40;

RIVERTON       FAIR      29  22  75 N5        30.11S WCI  24
6HR MIN TEMP:  29; 6HR MAX TEMP:  38;

CASPER         FAIR      32  21  64 E5        30.16S WCI  27
6HR MIN TEMP:  29; 6HR MAX TEMP:  36;

DOUGLAS        FAIR      31  24  75 SE16      30.23S WCI  20
6HR MIN TEMP:  27; 6HR MAX TEMP:  32;


$$
WYZ021-027>030-104>119-191300-
SOUTHERN WYOMING

CITY           SKY/WX    TMP DP  RH WIND       PRES   REMARKS
EVANSTON       FAIR      35  10  35 E8        29.99F WCI  29
6HR MIN TEMP:  34; 6HR MAX TEMP:  39;

KEMMERER       FAIR      32   9  37 N15       30.03F WCI  22
FORT BRIDGER   FAIR      31   6  34 MISG      30.05F
ROCK SPRINGS   FAIR      31  10  41 E8        30.06S WCI  23
6HR MIN TEMP:  31; 6HR MAX TEMP:  38;

DIXON          FAIR      31  19  60 CALM      30.11F
RAWLINS        FAIR      28  16  60 NE10      30.13S WCI  19
6HR MIN TEMP:  28; 6HR MAX TEMP:  35;

SARATOGA       FAIR      34  10  37 SE3       30.12S
LARAMIE        FAIR      29  14  53 SE23G31   30.17F WCI  15
6HR MIN TEMP:  29; 6HR MAX TEMP:  32;

CHEYENNE       FAIR      30  17  58 SE10      30.26S WCI  21
6HR MIN TEMP:  26; 6HR MAX TEMP:  34;

TORRINGTON     FAIR      28  26  92 E8        30.29S WCI  20
6HR MIN TEMP:  26; 6HR MAX TEMP:  33;

PINE BLUFFS    FAIR      25  19  80 MISG      30.29S

$$




USA.gov is the U.S. government's official web portal to all federal, state and local government web resources and services.